Flag for U.S.A. Weather past 2 weeks in Milwaukee, Wisconsin, U.S.A.

Now
41 °F

Clear.


Feels Like: 36 °F
Forecast: 37 / 60 °F
Wind: 8 mph from Northeast

Location: Milwaukee / Timmerman

Current Time: Apr 1, 2015 at 1:26:16 AM

Latest Report: Apr 1, 2015 at 12:55 AM


Visibility: 10 mi

Pressure: 29.98 "Hg

Humidity: 70%

Dew point: 32 °F

Location of MilwaukeeLocation

Historic Weather in Milwaukee — Graph

°F

Milwaukee temperature yesterday

Maximum temperature yesterday: 57 °F (at 5:45 PM)
Minimum temperature yesterday: 37 °F (at 2:15 AM)
Average temperature yesterday: 42 °F

Past Weeks' High & Low Weather Summary

 TemperatureHumidityPressure
High57 °F (Mar 30, 1:45 PM)100% (Mar 25, 5:15 AM)30.37 "Hg (Mar 25, 5:15 AM)
Low14 °F (Mar 28, 6:55 AM)18% (Mar 18, 3:45 PM)29.66 "Hg (Mar 29, 4:45 PM)
Average34 °F62%30.12 "Hg
* Reported Mar 17 12:15 AM — Apr 1 12:15 AM, Milwaukee, Weather by CustomWeather, © 2015

Note: Actual official high and low records may vary slightly from our data, if they occured in-between our weather recording intervals... More about our weather records

Advertising

Milwaukee weather history for previous 24 hours

 ConditionsComfort  
Time TempWeatherWind HumidityBarometerVisibility
12:15 AM
Wed, Apr 1
37 °FClear.6 mph81%29.97 "Hg10 mi
11:55 PM
Tue, Mar 31
37 °FClear.6 mph81%29.96 "Hg10 mi
11:35 PM37 °FClear.3 mph81%29.94 "Hg10 mi
11:15 PM37 °FClear.No wind81%29.95 "Hg10 mi
10:55 PM39 °FClear.No wind75%29.95 "Hg10 mi
10:15 PM41 °FClear.No wind70%29.95 "Hg10 mi
9:50 PM41 °FClear.3 mph70%29.94 "Hg10 mi
9:35 PM43 °FClear.No wind66%29.93 "Hg10 mi
9:15 PM43 °FClear.3 mph66%29.92 "Hg10 mi
8:45 PM45 °FClear.6 mph66%29.92 "Hg10 mi
7:45 PM46 °FScattered clouds.6 mph62%29.90 "Hg10 mi
5:45 PM57 °FScattered clouds.9 mph36%29.89 "Hg10 mi
4:45 PM55 °FScattered clouds.7 mph38%29.89 "Hg10 mi
3:45 PM55 °FSunny.6 mph33%29.91 "Hg10 mi
2:45 PM54 °FSunny.10 mph35%29.91 "Hg10 mi
12:45 PM50 °FScattered clouds.8 mph43%29.93 "Hg10 mi
11:45 AM46 °FScattered clouds.5 mph57%29.94 "Hg10 mi
10:45 AM46 °FOvercast.7 mph66%29.93 "Hg10 mi
9:45 AM43 °FOvercast.5 mph76%29.91 "Hg10 mi
8:45 AM43 °FOvercast.7 mph76%29.91 "Hg10 mi
7:45 AM39 °FLow clouds.5 mph87%29.87 "Hg10 mi
7:15 AM37 °FMostly cloudy.3 mph87%29.86 "Hg10 mi
6:55 AM37 °FLow clouds.No wind87%29.84 "Hg10 mi
6:15 AM37 °FLow clouds.8 mph87%29.82 "Hg10 mi
5:55 AM37 °FLow clouds.7 mph87%29.82 "Hg10 mi
5:15 AM37 °FMostly cloudy.9 mph93%29.81 "Hg10 mi
4:55 AM37 °FLow clouds.9 mph93%29.80 "Hg10 mi
4:35 AM37 °FLow clouds.9 mph93%29.79 "Hg10 mi
4:15 AM37 °FLow clouds.10 mph93%29.79 "Hg10 mi
3:55 AM39 °FLow clouds.10 mph87%29.78 "Hg10 mi
3:35 AM39 °FLow clouds.12 mph87%29.78 "Hg10 mi
3:15 AM37 °FLow clouds.9 mph93%29.77 "Hg10 mi
2:55 AM37 °FPassing clouds.12 mph93%29.77 "Hg10 mi
2:15 AM37 °FPassing clouds.9 mph87%29.76 "Hg10 mi
1:55 AM39 °FPartly cloudy.10 mph81%29.76 "Hg10 mi
1:35 AM41 °FLight rain. Mostly cloudy.7 mph81%29.76 "Hg10 mi
1:15 AM41 °FLight rain. Mostly cloudy.6 mph81%29.76 "Hg10 mi
Weather by CustomWeather, © 2015

See weather overviewHow to use our weather pages